Time,TemperatureF,DewpointF,PressureIn,WindDirection,WindDirectionDegrees,WindSpeedMPH,WindSpeedGustMPH,Humidity,HourlyPrecipIn,Conditions,Clouds,dailyrainin,SoftwareType,DateUTC
2013-03-18 00:13:00,4.0,-4.0,30.30,ENE,60,0.0,0.0,68,0.00,,,0.00,weatherlink.com 1.10,2013-03-18 08:13:00,
2013-03-18 00:28:00,4.8,-4.0,30.29,ENE,59,0.0,0.0,67,0.00,,,0.00,weatherlink.com 1.10,2013-03-18 08:28:00,
2013-03-18 00:43:00,4.6,-4.0,30.29,ENE,59,0.0,0.0,67,0.00,,,0.00,weatherlink.com 1.10,2013-03-18 08:43:00,
2013-03-18 00:58:00,4.3,-4.0,30.29,ENE,59,0.0,0.0,68,0.00,,,0.00,weatherlink.com 1.10,2013-03-18 08:58:00,
2013-03-18 01:13:00,3.3,-5.0,30.29,ENE,59,0.0,0.0,68,0.00,,,0.00,weatherlink.com 1.10,2013-03-18 09:13:00,
2013-03-18 01:28:00,2.1,-6.0,30.29,ENE,60,0.0,0.0,70,0.00,,,0.00,weatherlink.com 1.10,2013-03-18 09:28:00,
2013-03-18 01:43:00,2.0,-5.0,30.29,ENE,60,0.0,0.0,71,0.00,,,0.00,weatherlink.com 1.10,2013-03-18 09:43:00,
2013-03-18 01:58:00,1.4,-5.0,30.29,ENE,59,0.0,0.0,73,0.00,,,0.00,weatherlink.com 1.10,2013-03-18 09:58:00,
2013-03-18 02:13:00,1.1,-5.0,30.28,ENE,60,0.0,0.0,74,0.00,,,0.00,weatherlink.com 1.10,2013-03-18 10:13:00,
2013-03-18 02:28:00,1.1,-5.0,30.28,ENE,60,0.0,0.0,74,0.00,,,0.00,weatherlink.com 1.10,2013-03-18 10:28:00,
2013-03-18 02:43:00,0.8,-6.0,30.27,ENE,60,0.0,0.0,74,0.00,,,0.00,weatherlink.com 1.10,2013-03-18 10:43:00,
2013-03-18 02:59:00,0.7,-6.0,30.27,ENE,59,0.0,0.0,74,0.00,,,0.00,weatherlink.com 1.10,2013-03-18 10:59:00,
2013-03-18 03:14:00,0.5,-6.0,30.27,ENE,60,0.0,0.0,75,0.00,,,0.00,weatherlink.com 1.10,2013-03-18 11:14:00,
2013-03-18 03:29:00,0.2,-6.0,30.27,ENE,60,0.0,0.0,75,0.00,,,0.00,weatherlink.com 1.10,2013-03-18 11:29:00,
2013-03-18 03:44:00,-0.6,-7.0,30.26,ENE,59,0.0,0.0,75,0.00,,,0.00,weatherlink.com 1.10,2013-03-18 11:44:00,
2013-03-18 03:59:00,-1.0,-7.0,30.26,ENE,60,0.0,0.0,76,0.00,,,0.00,weatherlink.com 1.10,2013-03-18 11:59:00,
2013-03-18 04:14:00,-0.7,-6.0,30.26,ENE,60,0.0,0.0,77,0.00,,,0.00,weatherlink.com 1.10,2013-03-18 12:14:00,
2013-03-18 04:29:00,-0.7,-6.0,30.26,ENE,60,0.0,0.0,77,0.00,,,0.00,weatherlink.com 1.10,2013-03-18 12:29:00,
2013-03-18 04:44:00,-0.7,-7.0,30.25,ENE,60,0.0,0.0,76,0.00,,,0.00,weatherlink.com 1.10,2013-03-18 12:44:00,
2013-03-18 04:59:00,-0.9,-7.0,30.25,ENE,60,0.0,0.0,77,0.00,,,0.00,weatherlink.com 1.10,2013-03-18 12:59:00,
2013-03-18 05:14:00,-0.8,-6.0,30.25,ENE,59,0.0,0.0,77,0.00,,,0.00,weatherlink.com 1.10,2013-03-18 13:14:00,
2013-03-18 05:29:00,-0.3,-6.0,30.24,ENE,60,0.0,0.0,77,0.00,,,0.00,weatherlink.com 1.10,2013-03-18 13:29:00,
2013-03-18 05:44:00,-0.4,-6.0,30.23,ENE,60,0.0,0.0,76,0.00,,,0.00,weatherlink.com 1.10,2013-03-18 13:44:00,
2013-03-18 05:59:00,-1.1,-7.0,30.23,ENE,60,0.0,0.0,76,0.00,,,0.00,weatherlink.com 1.10,2013-03-18 13:59:00,
2013-03-18 06:15:00,-1.6,-7.0,30.23,ENE,60,0.0,0.0,77,0.00,,,0.00,weatherlink.com 1.10,2013-03-18 14:15:00,
2013-03-18 06:30:00,-1.9,-7.0,30.22,ENE,60,0.0,0.0,77,0.00,,,0.00,weatherlink.com 1.10,2013-03-18 14:30:00,
2013-03-18 06:45:00,-2.3,-8.0,30.22,ENE,60,0.0,0.0,78,0.00,,,0.00,weatherlink.com 1.10,2013-03-18 14:45:00,
2013-03-18 07:00:00,-3.3,-9.0,30.22,ENE,60,0.0,0.0,78,0.00,,,0.00,weatherlink.com 1.10,2013-03-18 15:00:00,
2013-03-18 07:15:00,-3.6,-8.0,30.22,NE,56,0.0,1.0,80,0.00,,,0.00,weatherlink.com 1.10,2013-03-18 15:15:00,
2013-03-18 07:30:00,-4.0,-9.0,30.21,NE,55,0.0,0.0,80,0.00,,,0.00,weatherlink.com 1.10,2013-03-18 15:30:00,
2013-03-18 07:45:00,-4.5,-9.0,30.22,NE,55,0.0,0.0,80,0.00,,,0.00,weatherlink.com 1.10,2013-03-18 15:45:00,
2013-03-18 08:00:00,-4.3,-9.0,30.21,NE,56,0.0,0.0,81,0.00,,,0.00,weatherlink.com 1.10,2013-03-18 16:00:00,
2013-03-18 08:15:00,-4.0,-8.0,30.20,NE,55,0.0,0.0,81,0.00,,,0.00,weatherlink.com 1.10,2013-03-18 16:15:00,
2013-03-18 08:30:00,-3.6,-8.0,30.20,NE,55,0.0,1.0,81,0.00,,,0.00,weatherlink.com 1.10,2013-03-18 16:30:00,
2013-03-18 08:45:00,-3.5,-8.0,30.20,ENE,76,0.0,1.0,80,0.00,,,0.00,weatherlink.com 1.10,2013-03-18 16:45:00,
2013-03-18 09:00:00,-3.4,-8.0,30.20,ENE,77,0.0,0.0,80,0.00,,,0.00,weatherlink.com 1.10,2013-03-18 17:00:00,
2013-03-18 09:15:00,-3.3,-8.0,30.20,ENE,77,0.0,0.0,80,0.00,,,0.00,weatherlink.com 1.10,2013-03-18 17:15:00,
2013-03-18 09:30:00,-2.9,-8.0,30.20,East,79,0.0,1.0,79,0.00,,,0.00,weatherlink.com 1.10,2013-03-18 17:30:00,
2013-03-18 09:46:00,-2.0,-7.0,30.19,East,79,0.0,1.0,79,0.00,,,0.00,weatherlink.com 1.10,2013-03-18 17:46:00,
2013-03-18 10:01:00,-1.6,-7.0,30.19,East,79,0.0,1.0,77,0.00,,,0.00,weatherlink.com 1.10,2013-03-18 18:01:00,
2013-03-18 10:16:00,-1.2,-7.0,30.19,East,90,0.0,0.0,77,0.00,,,0.00,weatherlink.com 1.10,2013-03-18 18:16:00,
2013-03-18 10:31:00,-1.0,-7.0,30.19,East,91,0.0,0.0,77,0.00,,,0.00,weatherlink.com 1.10,2013-03-18 18:31:00,
2013-03-18 11:16:00,4.0,-4.0,30.18,ESE,103,0.0,0.0,70,0.00,,,0.00,weatherlink.com 1.10,2013-03-18 19:16:00,
2013-03-18 11:31:00,5.6,-3.0,30.18,SSW,211,0.0,1.0,68,0.00,,,0.00,weatherlink.com 1.10,2013-03-18 19:31:00,
2013-03-18 11:46:00,7.0,-3.0,30.17,South,191,0.0,1.0,65,0.00,,,0.00,weatherlink.com 1.10,2013-03-18 19:46:00,
2013-03-18 12:01:00,8.1,-2.0,30.17,WSW,249,0.0,1.0,63,0.00,,,0.00,weatherlink.com 1.10,2013-03-18 20:01:00,
2013-03-18 12:16:00,9.8,-2.0,30.17,South,184,0.0,2.0,59,0.00,,,0.00,weatherlink.com 1.10,2013-03-18 20:16:00,
2013-03-18 12:31:00,10.9,-2.0,30.16,SW,222,0.0,1.0,57,0.00,,,0.00,weatherlink.com 1.10,2013-03-18 20:31:00,
2013-03-18 12:46:00,11.6,-2.0,30.16,SW,231,0.0,2.0,54,0.00,,,0.00,weatherlink.com 1.10,2013-03-18 20:46:00,
2013-03-18 13:01:00,12.6,-2.0,30.16,East,98,1.0,2.0,53,0.00,,,0.00,weatherlink.com 1.10,2013-03-18 21:01:00,
2013-03-18 13:17:00,13.2,-2.0,30.16,SSW,200,0.0,3.0,51,0.00,,,0.00,weatherlink.com 1.10,2013-03-18 21:17:00,
2013-03-18 13:32:00,14.0,-2.0,30.16,SW,233,0.0,3.0,50,0.00,,,0.00,weatherlink.com 1.10,2013-03-18 21:32:00,
2013-03-18 13:47:00,14.4,-1.0,30.15,NW,304,0.0,2.0,50,0.00,,,0.00,weatherlink.com 1.10,2013-03-18 21:47:00,
2013-03-18 14:02:00,15.7,-1.0,30.16,ESE,102,1.0,2.0,48,0.00,,,0.00,weatherlink.com 1.10,2013-03-18 22:02:00,
2013-03-18 14:17:00,15.6,-2.0,30.15,SSW,207,0.0,3.0,47,0.00,,,0.00,weatherlink.com 1.10,2013-03-18 22:17:00,
2013-03-18 14:32:00,16.2,-1.0,30.15,WNW,298,0.0,3.0,46,0.00,,,0.00,weatherlink.com 1.10,2013-03-18 22:32:00,
2013-03-18 14:47:00,16.7,0.0,30.15,SE,141,0.0,3.0,47,0.00,,,0.00,weatherlink.com 1.10,2013-03-18 22:47:00,
2013-03-18 15:02:00,16.9,-1.0,30.15,SSW,198,1.0,4.0,45,0.00,,,0.00,weatherlink.com 1.10,2013-03-18 23:02:00,
2013-03-18 15:17:00,17.7,0.0,30.14,SW,221,1.0,2.0,45,0.00,,,0.00,weatherlink.com 1.10,2013-03-18 23:17:00,
2013-03-18 15:32:00,17.9,0.0,30.14,ESE,117,0.0,2.0,46,0.00,,,0.00,weatherlink.com 1.10,2013-03-18 23:32:00,
2013-03-18 15:47:00,18.1,0.0,30.14,ENE,68,0.0,2.0,45,0.00,,,0.00,weatherlink.com 1.10,2013-03-18 23:47:00,
2013-03-18 16:02:00,17.9,2.0,30.14,SW,231,0.0,2.0,49,0.00,,,0.00,weatherlink.com 1.10,2013-03-19 00:02:00,
2013-03-18 16:17:00,17.8,0.0,30.14,South,191,0.0,1.0,46,0.00,,,0.00,weatherlink.com 1.10,2013-03-19 00:17:00,
2013-03-18 16:33:00,17.9,0.0,30.13,NW,326,0.0,2.0,45,0.00,,,0.00,weatherlink.com 1.10,2013-03-19 00:33:00,
2013-03-18 16:48:00,17.8,0.0,30.13,SSE,160,0.0,1.0,46,0.00,,,0.00,weatherlink.com 1.10,2013-03-19 00:48:00,
2013-03-18 17:03:00,17.7,1.0,30.14,ESE,104,1.0,1.0,47,0.00,,,0.00,weatherlink.com 1.10,2013-03-19 01:03:00,
2013-03-18 17:18:00,17.5,1.0,30.13,ENE,68,0.0,1.0,48,0.00,,,0.00,weatherlink.com 1.10,2013-03-19 01:18:00,
2013-03-18 17:33:00,17.2,1.0,30.14,SW,225,0.0,1.0,49,0.00,,,0.00,weatherlink.com 1.10,2013-03-19 01:33:00,
2013-03-18 17:48:00,17.3,1.0,30.13,North,6,0.0,1.0,48,0.00,,,0.00,weatherlink.com 1.10,2013-03-19 01:48:00,
2013-03-18 18:03:00,16.8,1.0,30.13,SSE,160,0.0,0.0,49,0.00,,,0.00,weatherlink.com 1.10,2013-03-19 02:03:00,
2013-03-18 18:18:00,16.7,1.0,30.13,SW,225,0.0,1.0,49,0.00,,,0.00,weatherlink.com 1.10,2013-03-19 02:18:00,
2013-03-18 18:33:00,15.9,1.0,30.13,SE,146,0.0,1.0,51,0.00,,,0.00,weatherlink.com 1.10,2013-03-19 02:33:00,
2013-03-18 18:48:00,15.4,1.0,30.13,SE,126,0.0,1.0,52,0.00,,,0.00,weatherlink.com 1.10,2013-03-19 02:48:00,
2013-03-18 19:03:00,14.3,0.0,30.13,ENE,71,0.0,0.0,54,0.00,,,0.00,weatherlink.com 1.10,2013-03-19 03:03:00,
2013-03-18 19:18:00,13.4,-1.0,30.14,ENE,70,0.0,0.0,53,0.00,,,0.00,weatherlink.com 1.10,2013-03-19 03:18:00,
2013-03-18 19:33:00,12.6,-2.0,30.14,ENE,69,0.0,0.0,53,0.00,,,0.00,weatherlink.com 1.10,2013-03-19 03:33:00,
2013-03-18 19:49:00,11.9,-2.0,30.14,ENE,70,0.0,0.0,54,0.00,,,0.00,weatherlink.com 1.10,2013-03-19 03:49:00,
2013-03-18 20:04:00,10.8,-3.0,30.14,ENE,70,0.0,0.0,55,0.00,,,0.00,weatherlink.com 1.10,2013-03-19 04:04:00,
2013-03-18 20:19:00,10.2,-3.0,30.15,ENE,69,0.0,0.0,56,0.00,,,0.00,weatherlink.com 1.10,2013-03-19 04:19:00,
2013-03-18 20:34:00,9.4,-3.0,30.15,ENE,69,0.0,0.0,58,0.00,,,0.00,weatherlink.com 1.10,2013-03-19 04:34:00,
2013-03-18 20:49:00,8.8,-3.0,30.15,ENE,69,0.0,0.0,59,0.00,,,0.00,weatherlink.com 1.10,2013-03-19 04:49:00,
2013-03-18 21:04:00,7.9,-3.0,30.15,ENE,70,0.0,0.0,60,0.00,,,0.00,weatherlink.com 1.10,2013-03-19 05:04:00,
2013-03-18 21:19:00,7.6,-3.0,30.15,ENE,68,0.0,0.0,62,0.00,,,0.00,weatherlink.com 1.10,2013-03-19 05:19:00,
2013-03-18 21:34:00,7.3,-3.0,30.16,ENE,69,0.0,0.0,62,0.00,,,0.00,weatherlink.com 1.10,2013-03-19 05:34:00,
2013-03-18 21:49:00,5.8,-4.0,30.16,ENE,68,0.0,0.0,65,0.00,,,0.00,weatherlink.com 1.10,2013-03-19 05:49:00,
2013-03-18 22:04:00,6.5,-3.0,30.16,ENE,68,0.0,0.0,64,0.00,,,0.00,weatherlink.com 1.10,2013-03-19 06:04:00,
2013-03-18 22:19:00,4.9,-5.0,30.16,ENE,69,0.0,0.0,65,0.00,,,0.00,weatherlink.com 1.10,2013-03-19 06:19:00,
2013-03-18 22:34:00,4.9,-5.0,30.16,NW,304,0.0,1.0,65,0.00,,,0.00,weatherlink.com 1.10,2013-03-19 06:34:00,
2013-03-18 22:49:00,4.1,-6.0,30.17,East,79,0.0,1.0,64,0.00,,,0.00,weatherlink.com 1.10,2013-03-19 06:49:00,
2013-03-18 23:04:00,3.8,-6.0,30.17,ENE,78,0.0,1.0,65,0.00,,,0.00,weatherlink.com 1.10,2013-03-19 07:04:00,
2013-03-18 23:20:00,4.0,-5.0,30.17,East,79,0.0,0.0,66,0.00,,,0.00,weatherlink.com 1.10,2013-03-19 07:20:00,
2013-03-18 23:35:00,2.6,-6.0,30.18,East,101,0.0,1.0,67,0.00,,,0.00,weatherlink.com 1.10,2013-03-19 07:35:00,
2013-03-18 23:50:00,1.9,-6.0,30.18,East,100,0.0,0.0,69,0.00,,,0.00,weatherlink.com 1.10,2013-03-19 07:50:00,